Location: Unspecified
(0.0000°N, 0.0000°E)
Time: 10:00:10
(UTC+00:00)

Cosmos 2333 Rocket - Pass Details

Date: 15 December 2025
Orbit: 838 x 865 km, 70.8° (Epoch: 17 January)

Event Time Altitude Azimuth Distance (km) Brightness Sun altitude
Rises 05:01:37 0° 7° (N) 3,412 5.2 -12.3°
Reaches altitude 10° 05:04:30 10° 20° (NNE) 2,474 4.6 -11.6°
Maximum altitude 05:09:04 25° 74° (ENE) 1,650 4.4 -10.6°
Drops below altitude 10° 05:13:37 10° 128° (SE) 2,467 6.1 -9.5°
Sets 05:16:28 0° 141° (SE) 3,400 6.6 -8.9°
